SCP
0 1 0 0 0 0 0 0 0 0 0 0 0 0 0 0 0 0 0 1 1 1 1 1 1 1 1 1 1 0 1 1 0 0 0 0 0 0 0 0 0 0 0
2 1 2 1 0 0 1 0 0 1 1 1 0 1 1 1 1 0 0 0 1 1 1 1 1 1 1 1 1 1 1 1 1 1 1 1 0 0 0 0 0 0 0
2 3 2 2 1 1 0 -0 0 1 1 1 0 0 0 1 1 2 1 1 1 1 1 1 1 1 1 1 1 1 1 1 1 1 1 1 0 0 0 0 0 0 0
2 3 3 1 1 1 1 1 1 1 1 1 1 1 1 1 1 1 1 1 1 1 1 2 2 1 1 1 1 1 1 1 1 1 1 1 1 0 0 0 0 0 -0
4 4 2 2 2 2 2 2 2 1 1 2 2 1 1 1 1 0 0 1 2 2 1 1 2 2 1 1 1 2 0 1 1 1 1 1 1 1 0 0 0 0 0
5 5 3 1 1 2 2 2 1 3 4 2 2 1 1 1 1 1 2 2 2 2 3 3 2 1 1 1 1 1 0 1 1 1 1 1 1 1 1 0 0 0 0
3 4 3 1 2 1 2 3 4 6 3 1 1 1 1 1 1 1 2 2 1 0 1 2 3 3 3 1 1 1 1 1 1 1 1 1 1 1 1 0 0 0 0
4 2 2 3 -0 1 2 5 4 3 2 2 1 1 1 0 0 1 0 1 0 0 1 1 2 3 4 3 1 0 1 1 0 1 1 1 1 1 0 0 0 0 0
2 3 2 1 1 2 5 4 4 3 3 2 1 1 1 1 1 0 0 -0 1 1 1 2 2 3 2 3 2 1 1 1 0 0 0 1 1 0 0 0 0 0 0
6 5 2 2 2 5 4 5 5 4 3 2 1 1 1 2 1 0 0 1 0 0 0 1 2 2 2 3 0 2 1 0 1 1 0 0 0 0 0 -0 0 0 0
6 4 4 3 4 4 5 5 5 5 3 3 2 1 1 1 1 2 1 0 1 1 1 1 0 1 1 1 1 1 -0 1 1 0 1 0 0 0 0 0 -0 -0 -0
5 4 4 6 5 5 4 4 4 4 4 3 2 2 1 0 0 0 0 0 0 0 0 0 0 0 0 3 2 1 0 0 0 0 0 0 0 1 0 0 0 0 -0
5 4 4 6 4 4 3 3 4 3 4 3 3 2 1 0 0 0 0 0 0 0 0 0 0 0 0 1 1 0 0 0 0 0 0 0 0 0 -0 0 0 0 0
1 4 1 2 3 3 3 2 2 2 2 2 1 1 1 0 0 0 0 0 0 0 0 0 0 0 0 0 0 0 0 0 0 0 0 0 0 0 0 0 0 0 0
1 1 2 3 2 2 2 2 2 2 2 2 1 3 2 1 0 0 0 0 0 0 0 0 0 0 0 0 0 0 0 0 0 0 0 0 0 0 0 0 0 0 0
0 0 0 0 1 2 2 2 2 2 2 1 1 1 1 1 1 0 0 0 0 0 0 0 0 0 0 0 0 0 0 0 0 0 0 0 0 0 0 0 0 0 0
0 0 0 0 0 1 1 2 2 2 1 2 2 1 1 2 1 1 0 0 0 0 0 0 0 0 0 0 0 0 0 0 0 0 0 0 0 0 0 0 0 0 0
0 0 0 0 0 0 0 1 1 1 1 1 1 1 1 1 2 1 1 0 0 0 0 0 0 0 0 0 0 0 0 0 0 0 0 0 0 0 0 0 0 0 0
0 0 0 0 0 0 0 0 0 0 0 1 1 1 1 1 1 1 1 1 1 1 0 0 0 0 0 0 0 0 0 0 0 0 0 0 0 0 0 0 0 0 0
0 0 0 0 0 0 0 0 0 0 0 0 0 0 1 1 1 1 1 1 1 1 0 0 0 0 0 0 0 0 0 0 0 0 0 0 0 0 0 0 0 0 0
0 0 0 0 0 0 0 0 0 0 0 0 0 0 0 0 0 0 0 0 0 0 0 0 0 0 0 0 0 0 0 0 -0 0 0 0 0 0 0 0 0 0 0
0 0 0 0 0 0 0 0 0 0 0 0 0 0 0 0 0 0 0 0 0 0 0 0 0 0 0 0 0 0 0 0 -0 -0 0 0 0 0 0 0 0 0 0
0 0 0 0 0 0 0 0 0 0 0 0 0 0 0 0 0 0 0 0 0 0 0 0 0 0 0 0 0 0 0 0 -0 -0 -0 -0 -0 0 0 0 0 0 0
0 0 0 0 0 0 0 0 0 0 0 0 0 0 0 0 0 0 0 0 0 0 0 0 0 0 0 0 0 0 0 -0 -0 -0 0 -0 0 0 0 0 0 0 0
0 0 0 0 0 0 0 0 0 0 0 0 0 0 0 0 0 0 0 0 0 0 0 0 0 0 0 0 0 0 0 0 0 0 0 0 0 0 0 0 0 0 0
0 0 0 0 0 0 0 0 0 0 0 0 0 0 0 0 0 0 0 0 0 0 0 -0 -0 0 0 0 0 0 0 0 0 0 -0 0 0 0 0 0 0 0 0
Wind_Speed_500mb
34 34 34 26 37 26 18 22 19 25 27 33 34 33 30 28 32 36 37 42 43 39 37 36 35 35 32 31 28 26 25 24 23 24 23 20 20 18 16 15 17 17 16
31 35 35 38 40 32 29 31 27 27 33 33 30 32 36 36 39 40 39 35 41 43 40 43 40 40 38 38 34 33 29 28 27 27 27 23 23 22 21 17 20 20 19
37 38 37 35 30 29 35 37 37 27 30 42 39 31 28 32 35 43 43 41 41 41 44 44 41 42 43 42 43 39 36 32 31 31 29 29 27 26 26 24 22 24 22
41 50 48 46 38 37 34 34 30 30 32 33 37 35 33 35 33 31 44 46 42 39 41 37 40 44 47 46 45 44 42 39 33 30 31 30 30 31 30 30 29 26 26
51 51 56 52 43 43 38 30 29 26 32 36 39 39 37 45 41 54 34 44 45 47 37 45 46 42 46 48 49 50 48 46 41 37 31 33 32 34 35 34 34 31 29
54 54 55 42 40 36 33 27 33 35 42 39 35 34 44 37 36 40 47 50 41 40 45 46 41 43 50 54 53 57 57 52 48 46 44 36 36 36 38 38 38 37 34
53 40 46 41 41 35 32 38 33 31 38 35 29 34 37 34 35 46 54 56 37 38 47 46 40 45 52 49 54 46 53 54 55 57 55 51 45 42 39 41 42 42 39
62 59 54 53 53 48 34 43 47 46 47 29 28 36 41 38 28 23 25 24 24 36 39 40 44 42 50 43 54 52 42 44 49 49 53 61 56 49 45 44 44 46 45
40 51 46 40 38 36 32 31 36 37 39 41 41 29 15 25 33 42 50 57 46 43 42 28 35 39 54 62 58 61 57 44 41 50 49 53 52 50 50 49 48 48 49
46 49 44 42 49 41 48 48 37 32 36 37 21 23 30 39 41 47 54 53 56 44 37 46 38 42 60 61 56 53 46 49 55 54 51 50 45 42 52 54 52 49 50
42 43 48 43 48 54 39 37 43 43 42 30 30 30 36 38 37 36 42 52 39 44 41 50 46 60 42 47 49 53 58 54 43 51 55 57 57 57 53 52 53 52 51
40 37 35 44 43 46 46 40 51 48 45 43 41 41 42 40 44 41 44 44 53 52 46 45 41 39 50 50 61 59 53 53 45 60 61 59 63 61 54 53 49 51 51
26 33 44 34 38 41 41 39 39 41 40 42 43 44 42 38 40 43 43 46 49 59 54 46 51 51 37 43 49 50 50 59 52 54 61 61 58 58 52 56 63 63 59
8 15 26 32 37 34 33 38 42 45 45 47 46 47 48 46 45 48 49 46 50 49 51 44 41 53 52 59 57 54 40 48 44 51 41 37 35 40 42 46 50 56 61
18 10 13 21 29 38 45 44 49 51 49 49 50 50 55 58 56 53 52 50 49 50 54 57 49 54 50 47 56 55 55 44 21 34 35 35 35 40 42 44 47 53 60
44 49 50 46 38 35 45 52 56 59 61 61 63 66 67 66 63 55 52 57 60 57 63 58 63 53 47 40 41 55 57 44 52 65 52 43 51 52 47 45 47 48 59
42 45 48 50 53 52 54 63 68 71 71 70 66 68 71 70 69 65 64 63 65 65 66 55 49 55 59 66 72 60 63 59 52 48 56 51 49 48 48 47 47 49 55
48 51 52 53 54 56 55 58 63 70 77 83 86 87 85 80 81 79 83 85 82 77 75 84 75 68 62 51 43 44 46 60 63 55 54 57 61 63 56 51 49 54 59
57 58 59 60 62 63 65 64 65 69 71 72 77 82 87 85 84 82 86 81 73 71 73 74 69 49 57 61 71 76 71 49 53 55 55 53 55 59 66 61 53 57 63
55 56 58 61 61 62 62 63 65 68 71 74 74 74 72 76 88 91 89 86 90 88 87 84 83 80 75 74 63 60 52 50 51 54 56 54 59 61 57 59 59 58 68
65 65 67 67 67 67 66 65 67 73 77 80 80 80 77 70 73 72 75 87 90 87 83 78 78 71 68 71 61 43 48 54 62 67 61 54 56 57 65 69 65 58 58
59 58 60 63 67 68 66 73 80 85 87 88 92 97 98 96 91 86 81 76 78 86 86 82 76 71 68 56 54 51 51 60 73 65 47 54 51 57 48 38 39 40 46
61 66 70 68 67 70 76 83 88 92 96 99 102 104 105 102 98 92 97 91 76 72 81 94 96 86 79 82 82 66 61 66 79 79 65 67 48 51 39 31 27 33 39
69 77 81 84 85 93 102 101 95 99 103 104 104 105 104 107 106 106 104 104 97 94 78 67 77 99 99 93 82 72 72 71 80 70 64 62 54 40 40 39 31 31 30
91 98 100 98 99 102 103 99 82 73 71 76 76 77 76 80 87 89 92 90 98 114 107 93 67 65 82 84 85 77 71 53 59 61 52 50 42 53 54 43 30 25 24
85 91 98 94 87 82 74 67 63 61 74 81 80 80 77 79 72 66 67 73 91 93 93 106 102 78 66 65 60 51 57 61 61 57 37 32 24 47 49 38 36 25 23
Wind_Direction_500mb
202 226 224 236 257 265 285 274 269 256 264 272 275 279 279 278 271 258 251 261 275 287 296 287 275 272 273 269 270 272 268 267 270 271 266 264 267 264 252 255 259 255 252
212 221 235 230 225 226 252 258 268 261 262 277 286 282 284 281 280 275 271 274 282 286 287 295 284 272 270 268 266 267 265 258 261 267 265 264 262 259 258 253 252 253 249
226 224 231 241 238 233 238 240 243 245 261 262 270 279 282 278 285 286 288 286 275 274 287 286 292 282 271 269 265 263 265 261 262 263 263 261 260 259 256 258 257 251 250
248 221 218 223 227 229 233 244 249 259 268 269 278 285 281 285 286 296 294 288 276 268 272 297 290 287 284 272 265 263 265 264 262 260 259 261 261 259 257 255 257 253 250
244 239 226 223 217 224 217 232 249 258 258 266 267 274 279 281 284 301 266 270 269 280 278 267 277 284 288 283 271 266 264 263 261 260 258 259 261 259 258 256 255 253 250
247 249 229 217 229 227 226 235 247 247 257 264 270 279 274 296 297 293 267 265 271 276 277 283 282 279 283 277 277 273 268 266 263 262 261 261 258 256 257 256 257 256 253
238 233 234 215 232 227 222 232 239 245 259 274 274 281 291 293 289 290 293 291 286 294 272 283 275 281 276 292 272 274 271 269 270 266 265 259 256 253 254 254 256 256 256
278 250 232 255 226 229 230 233 248 254 254 256 270 274 277 293 283 289 306 342 330 269 277 278 278 277 273 282 283 273 271 265 267 272 268 264 262 256 253 254 255 255 254
228 234 239 223 239 229 230 241 258 256 251 248 237 263 278 286 292 277 285 292 301 286 282 306 292 282 283 279 275 269 276 265 264 269 272 270 257 254 254 257 258 257 253
246 247 248 236 231 227 235 238 241 224 242 257 255 251 266 276 282 292 294 298 310 316 305 299 291 295 282 273 267 270 279 259 259 266 271 265 258 256 259 258 257 257 254
235 233 239 242 243 231 226 229 229 234 242 250 245 251 258 265 273 287 295 302 300 305 305 298 293 281 288 299 297 275 277 270 260 259 267 266 261 264 263 255 255 254 253
244 236 238 238 232 235 232 235 234 232 238 241 247 249 252 261 267 280 288 289 293 293 289 290 296 290 289 296 298 286 283 270 283 273 261 259 265 264 253 250 254 254 252
248 251 229 230 229 236 234 235 240 250 256 258 263 263 264 257 260 270 278 284 289 290 295 295 295 292 296 296 296 291 278 285 291 287 261 262 259 258 256 253 255 254 249
64 276 262 239 244 236 252 260 260 258 263 265 266 267 267 266 267 267 269 279 284 288 289 288 288 296 296 278 290 302 297 281 284 278 258 258 254 252 254 252 253 254 247
262 264 221 236 263 268 264 258 262 267 265 264 265 263 264 271 274 273 262 267 275 287 287 287 284 290 295 295 285 288 301 300 308 282 278 265 262 260 259 261 257 249 245
267 270 273 267 254 249 258 260 258 258 258 259 259 260 261 265 269 266 260 259 267 275 278 281 284 288 290 301 290 288 291 292 271 273 272 274 282 272 261 256 257 254 244
280 278 276 274 274 274 266 258 259 259 257 256 261 262 260 260 261 260 263 265 265 268 275 276 274 277 282 284 289 289 283 288 294 274 270 277 279 272 263 258 251 250 242
278 277 276 274 274 272 267 264 267 266 263 263 260 260 261 259 258 259 262 263 262 262 265 274 277 278 282 293 293 285 288 294 286 282 263 265 270 271 265 264 255 243 238
286 284 281 275 271 267 266 267 268 268 268 269 270 268 266 264 262 260 255 259 262 265 268 268 269 265 273 276 278 282 291 289 281 283 282 258 263 268 261 261 258 242 234
289 286 281 279 276 273 271 272 271 270 269 269 267 266 268 267 266 267 263 259 258 259 259 262 268 271 275 283 284 282 277 293 293 286 281 266 269 268 265 263 261 248 233
290 289 288 284 279 279 279 280 276 271 269 267 264 262 260 261 260 261 266 262 260 259 258 257 260 263 265 269 269 265 275 281 283 289 290 274 263 262 265 263 262 242 229
290 286 283 282 280 280 279 272 269 270 271 273 274 270 268 264 260 258 258 259 266 262 260 255 256 254 252 258 271 284 285 287 293 287 297 278 264 263 261 252 238 223 217
290 287 286 285 278 270 265 264 264 267 271 274 276 275 274 272 270 266 263 259 261 260 258 260 256 253 255 258 266 273 279 282 285 287 290 288 267 257 243 232 210 212 213
283 281 280 276 274 272 274 278 279 279 277 276 275 274 275 273 271 271 267 259 258 255 254 253 254 255 257 261 261 266 273 275 281 281 283 292 273 248 238 221 210 203 202
281 282 283 284 282 285 284 284 282 280 280 282 284 280 279 278 275 275 271 267 265 257 251 253 255 262 256 257 258 262 268 267 278 279 290 281 249 268 234 212 204 202 225
289 291 290 289 289 290 290 289 285 278 278 282 285 285 285 284 281 274 269 269 262 261 260 255 259 261 254 246 258 245 256 264 273 282 294 274 216 206 202 195 209 204 232
Wind_Speed_850mb
34 34 34 26 37 26 18 22 19 25 27 33 34 33 30 28 32 36 37 42 43 39 37 36 35 35 32 31 28 26 25 24 23 24 23 20 20 18 16 15 17 17 16
31 35 35 38 40 32 29 31 27 27 33 33 30 32 36 36 39 40 39 35 41 43 40 43 40 40 38 38 34 33 29 28 27 27 27 23 23 22 21 17 20 20 19
37 38 37 35 30 29 35 37 37 27 30 42 39 31 28 32 35 43 43 41 41 41 44 44 41 42 43 42 43 39 36 32 31 31 29 29 27 26 26 24 22 24 22
41 50 48 46 38 37 34 34 30 30 32 33 37 35 33 35 33 31 44 46 42 39 41 37 40 44 47 46 45 44 42 39 33 30 31 30 30 31 30 30 29 26 26
51 51 56 52 43 43 38 30 29 26 32 36 39 39 37 45 41 54 34 44 45 47 37 45 46 42 46 48 49 50 48 46 41 37 31 33 32 34 35 34 34 31 29
54 54 55 42 40 36 33 27 33 35 42 39 35 34 44 37 36 40 47 50 41 40 45 46 41 43 50 54 53 57 57 52 48 46 44 36 36 36 38 38 38 37 34
53 40 46 41 41 35 32 38 33 31 38 35 29 34 37 34 35 46 54 56 37 38 47 46 40 45 52 49 54 46 53 54 55 57 55 51 45 42 39 41 42 42 39
62 59 54 53 53 48 34 43 47 46 47 29 28 36 41 38 28 23 25 24 24 36 39 40 44 42 50 43 54 52 42 44 49 49 53 61 56 49 45 44 44 46 45
40 51 46 40 38 36 32 31 36 37 39 41 41 29 15 25 33 42 50 57 46 43 42 28 35 39 54 62 58 61 57 44 41 50 49 53 52 50 50 49 48 48 49
46 49 44 42 49 41 48 48 37 32 36 37 21 23 30 39 41 47 54 53 56 44 37 46 38 42 60 61 56 53 46 49 55 54 51 50 45 42 52 54 52 49 50
42 43 48 43 48 54 39 37 43 43 42 30 30 30 36 38 37 36 42 52 39 44 41 50 46 60 42 47 49 53 58 54 43 51 55 57 57 57 53 52 53 52 51
40 37 35 44 43 46 46 40 51 48 45 43 41 41 42 40 44 41 44 44 53 52 46 45 41 39 50 50 61 59 53 53 45 60 61 59 63 61 54 53 49 51 51
26 33 44 34 38 41 41 39 39 41 40 42 43 44 42 38 40 43 43 46 49 59 54 46 51 51 37 43 49 50 50 59 52 54 61 61 58 58 52 56 63 63 59
8 15 26 32 37 34 33 38 42 45 45 47 46 47 48 46 45 48 49 46 50 49 51 44 41 53 52 59 57 54 40 48 44 51 41 37 35 40 42 46 50 56 61
18 10 13 21 29 38 45 44 49 51 49 49 50 50 55 58 56 53 52 50 49 50 54 57 49 54 50 47 56 55 55 44 21 34 35 35 35 40 42 44 47 53 60
44 49 50 46 38 35 45 52 56 59 61 61 63 66 67 66 63 55 52 57 60 57 63 58 63 53 47 40 41 55 57 44 52 65 52 43 51 52 47 45 47 48 59
42 45 48 50 53 52 54 63 68 71 71 70 66 68 71 70 69 65 64 63 65 65 66 55 49 55 59 66 72 60 63 59 52 48 56 51 49 48 48 47 47 49 55
48 51 52 53 54 56 55 58 63 70 77 83 86 87 85 80 81 79 83 85 82 77 75 84 75 68 62 51 43 44 46 60 63 55 54 57 61 63 56 51 49 54 59
57 58 59 60 62 63 65 64 65 69 71 72 77 82 87 85 84 82 86 81 73 71 73 74 69 49 57 61 71 76 71 49 53 55 55 53 55 59 66 61 53 57 63
55 56 58 61 61 62 62 63 65 68 71 74 74 74 72 76 88 91 89 86 90 88 87 84 83 80 75 74 63 60 52 50 51 54 56 54 59 61 57 59 59 58 68
65 65 67 67 67 67 66 65 67 73 77 80 80 80 77 70 73 72 75 87 90 87 83 78 78 71 68 71 61 43 48 54 62 67 61 54 56 57 65 69 65 58 58
59 58 60 63 67 68 66 73 80 85 87 88 92 97 98 96 91 86 81 76 78 86 86 82 76 71 68 56 54 51 51 60 73 65 47 54 51 57 48 38 39 40 46
61 66 70 68 67 70 76 83 88 92 96 99 102 104 105 102 98 92 97 91 76 72 81 94 96 86 79 82 82 66 61 66 79 79 65 67 48 51 39 31 27 33 39
69 77 81 84 85 93 102 101 95 99 103 104 104 105 104 107 106 106 104 104 97 94 78 67 77 99 99 93 82 72 72 71 80 70 64 62 54 40 40 39 31 31 30
91 98 100 98 99 102 103 99 82 73 71 76 76 77 76 80 87 89 92 90 98 114 107 93 67 65 82 84 85 77 71 53 59 61 52 50 42 53 54 43 30 25 24
85 91 98 94 87 82 74 67 63 61 74 81 80 80 77 79 72 66 67 73 91 93 93 106 102 78 66 65 60 51 57 61 61 57 37 32 24 47 49 38 36 25 23
Wind_Direction_850mb
202 226 224 236 257 265 285 274 269 256 264 272 275 279 279 278 271 258 251 261 275 287 296 287 275 272 273 269 270 272 268 267 270 271 266 264 267 264 252 255 259 255 252
212 221 235 230 225 226 252 258 268 261 262 277 286 282 284 281 280 275 271 274 282 286 287 295 284 272 270 268 266 267 265 258 261 267 265 264 262 259 258 253 252 253 249
226 224 231 241 238 233 238 240 243 245 261 262 270 279 282 278 285 286 288 286 275 274 287 286 292 282 271 269 265 263 265 261 262 263 263 261 260 259 256 258 257 251 250
248 221 218 223 227 229 233 244 249 259 268 269 278 285 281 285 286 296 294 288 276 268 272 297 290 287 284 272 265 263 265 264 262 260 259 261 261 259 257 255 257 253 250
244 239 226 223 217 224 217 232 249 258 258 266 267 274 279 281 284 301 266 270 269 280 278 267 277 284 288 283 271 266 264 263 261 260 258 259 261 259 258 256 255 253 250
247 249 229 217 229 227 226 235 247 247 257 264 270 279 274 296 297 293 267 265 271 276 277 283 282 279 283 277 277 273 268 266 263 262 261 261 258 256 257 256 257 256 253
238 233 234 215 232 227 222 232 239 245 259 274 274 281 291 293 289 290 293 291 286 294 272 283 275 281 276 292 272 274 271 269 270 266 265 259 256 253 254 254 256 256 256
278 250 232 255 226 229 230 233 248 254 254 256 270 274 277 293 283 289 306 342 330 269 277 278 278 277 273 282 283 273 271 265 267 272 268 264 262 256 253 254 255 255 254
228 234 239 223 239 229 230 241 258 256 251 248 237 263 278 286 292 277 285 292 301 286 282 306 292 282 283 279 275 269 276 265 264 269 272 270 257 254 254 257 258 257 253
246 247 248 236 231 227 235 238 241 224 242 257 255 251 266 276 282 292 294 298 310 316 305 299 291 295 282 273 267 270 279 259 259 266 271 265 258 256 259 258 257 257 254
235 233 239 242 243 231 226 229 229 234 242 250 245 251 258 265 273 287 295 302 300 305 305 298 293 281 288 299 297 275 277 270 260 259 267 266 261 264 263 255 255 254 253
244 236 238 238 232 235 232 235 234 232 238 241 247 249 252 261 267 280 288 289 293 293 289 290 296 290 289 296 298 286 283 270 283 273 261 259 265 264 253 250 254 254 252
248 251 229 230 229 236 234 235 240 250 256 258 263 263 264 257 260 270 278 284 289 290 295 295 295 292 296 296 296 291 278 285 291 287 261 262 259 258 256 253 255 254 249
64 276 262 239 244 236 252 260 260 258 263 265 266 267 267 266 267 267 269 279 284 288 289 288 288 296 296 278 290 302 297 281 284 278 258 258 254 252 254 252 253 254 247
262 264 221 236 263 268 264 258 262 267 265 264 265 263 264 271 274 273 262 267 275 287 287 287 284 290 295 295 285 288 301 300 308 282 278 265 262 260 259 261 257 249 245
267 270 273 267 254 249 258 260 258 258 258 259 259 260 261 265 269 266 260 259 267 275 278 281 284 288 290 301 290 288 291 292 271 273 272 274 282 272 261 256 257 254 244
280 278 276 274 274 274 266 258 259 259 257 256 261 262 260 260 261 260 263 265 265 268 275 276 274 277 282 284 289 289 283 288 294 274 270 277 279 272 263 258 251 250 242
278 277 276 274 274 272 267 264 267 266 263 263 260 260 261 259 258 259 262 263 262 262 265 274 277 278 282 293 293 285 288 294 286 282 263 265 270 271 265 264 255 243 238
286 284 281 275 271 267 266 267 268 268 268 269 270 268 266 264 262 260 255 259 262 265 268 268 269 265 273 276 278 282 291 289 281 283 282 258 263 268 261 261 258 242 234
289 286 281 279 276 273 271 272 271 270 269 269 267 266 268 267 266 267 263 259 258 259 259 262 268 271 275 283 284 282 277 293 293 286 281 266 269 268 265 263 261 248 233
290 289 288 284 279 279 279 280 276 271 269 267 264 262 260 261 260 261 266 262 260 259 258 257 260 263 265 269 269 265 275 281 283 289 290 274 263 262 265 263 262 242 229
290 286 283 282 280 280 279 272 269 270 271 273 274 270 268 264 260 258 258 259 266 262 260 255 256 254 252 258 271 284 285 287 293 287 297 278 264 263 261 252 238 223 217
290 287 286 285 278 270 265 264 264 267 271 274 276 275 274 272 270 266 263 259 261 260 258 260 256 253 255 258 266 273 279 282 285 287 290 288 267 257 243 232 210 212 213
283 281 280 276 274 272 274 278 279 279 277 276 275 274 275 273 271 271 267 259 258 255 254 253 254 255 257 261 261 266 273 275 281 281 283 292 273 248 238 221 210 203 202
281 282 283 284 282 285 284 284 282 280 280 282 284 280 279 278 275 275 271 267 265 257 251 253 255 262 256 257 258 262 268 267 278 279 290 281 249 268 234 212 204 202 225
289 291 290 289 289 290 290 289 285 278 278 282 285 285 285 284 281 274 269 269 262 261 260 255 259 261 254 246 258 245 256 264 273 282 294 274 216 206 202 195 209 204 232